Location: Boiro
(42.6475°N, 8.8834°W)
Time: 01:56:54
(UTC+02:00)

UKube-1 - Pass Details

Date: 02 May 2024
Orbit: 583 x 591 km, 98.3° (Epoch: 23 May)

Event Time Altitude Azimuth Distance (km) Brightness Sun altitude
Rises 03:28:04 0° 16° (NNE) 2,830 ? -30.5°
Reaches altitude 10° 03:30:15 10° 19° (NNE) 1,923 ? -30.4°
Enters shadow 03:32:39 33° 28° (NNE) 1,001 ? -30.2°
